Regional Weather Roundup
Issued by NWS

Home | Current Version | Previous Version | Graphics & Text | Print | Product List | Glossary On
Versions: 1 2 3 4 5 6 7 8 9 10 11 12 13 14 15 16 17 18 19 20 21 22 23 24 25 26 27 28 29 30 31 32 33 34 35 36 37 38 39 40 41 42 43 44 45 46 47 48 49 50
893
ASUS45 KSLC 290910
RWRUT

UTAH REGIONAL WEATHER ROUNDUP
NATIONAL WEATHER SERVICE SALT LAKE CITY UT
300 AM MDT MON AUG 29 2016

UTZ001>011-023>025-291000-

NORTHERN UTAH

CITY           SKY/WX    TMP DP  RH WIND       PRES   REMARKS
BRIGHAM CITY     N/A     60  36  41 CALM      30.18S
HILL AFB       CLEAR     65  32  28 E18       30.20S
LOGAN          CLEAR     54  45  71 CALM      30.22R
OGDEN          CLEAR     64  33  31 S9        30.17F
PROVO AIRPORT  CLEAR     57  39  51 CALM      30.20R
SALT LAKE CITY CLEAR     66  39  37 S6        30.17R
VERNAL         CLEAR     58  41  53 W7        30.25S
WENDOVER       CLEAR     64  34  32 CALM      30.18S
HEBER CITY     CLEAR     50  34  53 SE3       30.29R
WEST JORDAN    CLEAR     63  33  33 CALM      30.20S

$$

UTZ012>022-026-027-291000-

SOUTHERN/CENTRAL UTAH

CITY           SKY/WX    TMP DP  RH WIND       PRES   REMARKS
BLANDING       CLEAR     58  41  53 NE8       30.34R
BRYCE CANYON   CLEAR     45  41  86 W8        30.42R
CEDAR CITY     CLEAR     59  38  45 E6        30.26S
MILFORD        CLEAR     54  35  48 S6        30.22S
MOAB/CYNLANDS  CLEAR     66  42  41 SE8       30.18R
PRICE          CLEAR     58  36  43 N5        30.29S
ST GEORGE      SUNNY     70  54  56 SE6       30.11S

$$

REGIONAL REPORTS     COLORADO/ARIZONA

CITY           SKY/WX    TMP DP  RH WIND       PRES   REMARKS
CRAIG, CO      CLOUDY    49  40  71 SE5       30.33R
GRAND JUNCTION CLEAR     60  45  57 SE9       30.24R
RIFLE          CLOUDY    55  49  80 CALM      30.31R
MONTROSE       CLOUDY    52  45  77 MISG      30.32S
CORTEZ         CLEAR     49  45  86 CALM      30.29R
PAGE, AZ       CLEAR     69  46  43 CALM      30.16S
GRAND CANYON   CLEAR     48  45  89 CALM      30.34S
KINGMAN        CLEAR     67  53  61 SE8       30.11S
FLAGSTAFF      CLEAR     44  42  93 CALM      30.35S

$$

REGIONAL REPORTS    NEVADA/IDAHO/WYOMING

CITY           SKY/WX    TMP DP  RH WIND       PRES   REMARKS
LAS VEGAS, NV  CLEAR     81  46  29 S5        29.98S
ELY            CLEAR     49  26  41 SE7       30.33R
ELKO           CLEAR     53  27  36 CALM      30.23S
POCATELLO, ID  CLEAR     58  37  45 E6        30.21R
BURLEY         CLEAR     54  39  57 CALM      30.17S
EVANSTON, WY   CLOUDY    55  28  35 SE7       30.39S
ROCK SPRINGS   CLOUDY    56  25  30 W7        30.34R

$$




USA.gov is the U.S. government's official web portal to all federal, state and local government web resources and services.